TimeEST,TemperatureF,Dew PointF,Humidity,Sea Level PressureIn,VisibilityMPH,Wind Direction,Wind SpeedMPH,Gust SpeedMPH,PrecipitationIn,Events,Conditions,WindDirDegrees,DateUTC
12:51 AM,33.1,19.9,59,29.92,10.0,NW,17.3,23.0,N/A,,Partly Cloudy,310,2013-03-05 05:51:00
2:51 AM,33.1,21.0,61,29.92,10.0,NW,10.4,-,N/A,,Clear,320,2013-03-05 07:51:00
3:51 AM,33.1,21.0,61,29.93,10.0,NW,12.7,-,N/A,,Clear,310,2013-03-05 08:51:00
4:51 AM,33.1,21.0,61,29.95,10.0,NNW,12.7,-,N/A,,Clear,330,2013-03-05 09:51:00
5:51 AM,33.1,21.0,61,29.97,10.0,NW,13.8,-,N/A,,Partly Cloudy,320,2013-03-05 10:51:00
6:51 AM,33.1,21.0,61,29.99,10.0,NW,9.2,-,N/A,,Partly Cloudy,320,2013-03-05 11:51:00
7:51 AM,33.8,21.2,60,30.00,10.0,NW,13.8,-,N/A,,Scattered Clouds,320,2013-03-05 12:51:00
8:51 AM,35.1,21.0,57,30.01,10.0,NNW,11.5,-,N/A,,Partly Cloudy,340,2013-03-05 13:51:00
9:51 AM,37.9,23.0,55,30.01,10.0,NW,10.4,-,N/A,,Clear,310,2013-03-05 14:51:00
10:51 AM,41.0,23.0,49,29.99,10.0,NNW,12.7,19.6,N/A,,Clear,340,2013-03-05 15:51:00
11:51 AM,44.1,23.0,43,29.99,10.0,North,10.4,19.6,N/A,,Partly Cloudy,360,2013-03-05 16:51:00
12:51 PM,44.1,24.1,45,29.98,10.0,North,10.4,-,N/A,,Partly Cloudy,350,2013-03-05 17:51:00
1:51 PM,45.0,23.0,42,29.98,10.0,NNE,5.8,-,N/A,,Partly Cloudy,20,2013-03-05 18:51:00
2:51 PM,46.9,23.0,39,29.98,10.0,North,8.1,-,N/A,,Scattered Clouds,10,2013-03-05 19:51:00
3:51 PM,46.9,21.9,37,29.97,10.0,ENE,5.8,-,N/A,,Scattered Clouds,60,2013-03-05 20:51:00
4:51 PM,46.9,23.0,39,29.97,10.0,ENE,6.9,-,N/A,,Scattered Clouds,70,2013-03-05 21:51:00
5:51 PM,46.0,23.0,40,29.99,10.0,ENE,8.1,-,N/A,,Scattered Clouds,70,2013-03-05 22:51:00
6:51 PM,45.0,23.0,42,30.01,10.0,NE,3.5,-,N/A,,Scattered Clouds,50,2013-03-05 23:51:00
7:51 PM,43.0,25.0,49,30.00,10.0,East,5.8,-,N/A,,Scattered Clouds,80,2013-03-06 00:51:00
8:51 PM,44.1,24.1,45,30.00,10.0,Variable,4.6,-,N/A,,Scattered Clouds,0,2013-03-06 01:51:00
9:51 PM,42.1,24.1,49,30.01,10.0,SE,8.1,-,N/A,,Mostly Cloudy,130,2013-03-06 02:51:00
10:51 PM,42.1,24.1,49,30.01,10.0,SE,8.1,-,N/A,,Overcast,140,2013-03-06 03:51:00
11:51 PM,41.0,26.1,55,29.99,10.0,ESE,9.2,-,N/A,,Overcast,120,2013-03-06 04:51:00